Regional Weather Roundup
Issued by NWS

Home | Current Version | Previous Version | Text Only | Print | Product List | Glossary Off
Versions: 1 2 3 4 5 6 7 8 9 10 11 12 13 14 15 16 17 18 19 20 21 22 23 24 25 26 27 28 29 30 31 32 33 34 35 36 37 38 39 40 41 42 43 44 45 46 47 48 49 50

000
ASUS43 KLSX 160007
RWRMO

WEATHER SUMMARY FOR MISSOURI
NATIONAL WEATHER SERVICE SPRINGFIELD MO
700 PM CDT TUE APR 15 2014

NOTE: "FAIR" INDICATES FEW OR NO CLOUDS BELOW 12,000 FEET WITH NO
       SIGNIFICANT WEATHER AND/OR OBSTRUCTIONS TO VISIBILITY.
       CURRENT SKY AND/OR WEATHER CONDITIONS ARE NOT AVAILABLE FOR
       CHILLICOTHE AND FARMINGTON.

MOZ001>031-035>038-043-044-053-054-160100-
...NORTHERN AND WESTERN MISSOURI...

CITY           SKY/WX    TMP DP  RH WIND       PRES   REMARKS
KANSAS CTY INT MOCLDY    51  25  36 S13       30.04F
6HR MIN TEMP:  47; 6HR MAX TEMP:  54;

KANSAS C DTWN  PTCLDY    53  25  33 S17       30.05F
6HR MIN TEMP:  48; 6HR MAX TEMP:  56;

LEE`S SUMMIT   PTCLDY    51  26  37 S9        30.07F
6HR MIN TEMP:  46; 6HR MAX TEMP:  53;

ST JOSEPH      PTSUNNY   53  28  38 S14       30.02F
6HR MIN TEMP:  45; 6HR MAX TEMP:  54;

CHILLICOTHE      N/A     50  24  36 S7        30.09F
6HR MIN TEMP:  45; 6HR MAX TEMP:  52;

KIRKSVILLE     PTCLDY    46  18  32 S6        30.10F
6HR MIN TEMP:  44; 6HR MAX TEMP:  49;


$$
MOZ066>068-077>081-088>096-101>105-160100-
...SOUTHWEST MISSOURI...

CITY           SKY/WX    TMP DP  RH WIND       PRES   REMARKS
SPRINGFIELD    CLEAR     50  23  34 S5        30.12F
6HR MIN TEMP:  46; 6HR MAX TEMP:  54;

JOPLIN         CLEAR     53  26  35 CALM      30.10F
6HR MIN TEMP:  50; 6HR MAX TEMP:  57;


$$
MOZ032>034-039>042-045>050-055>058-069>072-160100-
...CENTRAL MISSOURI...

CITY           SKY/WX    TMP DP  RH WIND       PRES   REMARKS
COLUMBIA       CLEAR     47  22  37 SW6       30.13F
6HR MIN TEMP:  44; 6HR MAX TEMP:  50;

JEFFERSON CITY CLEAR     49  20  31 CALM      30.14F
6HR MIN TEMP:  43; 6HR MAX TEMP:  50;

ROLLA          CLEAR     46  20  35 W3        30.12F
6HR MIN TEMP:  42; 6HR MAX TEMP:  48;

SEDALIA        CLEAR     48  28  46 S9        30.12S
6HR MIN TEMP:  45; 6HR MAX TEMP:  51; 6HR PCP: TRACE;

WHITEMAN AFB   PTCLDY    49  27  42 S6        30.10S
OSAGE BEACH    CLEAR     52  19  28 S3        30.14F

$$
MOZ051-052-059>065-160100-
...EAST CENTRAL MISSOURI...

CITY           SKY/WX    TMP DP  RH WIND       PRES   REMARKS
ST LOUIS INTL  PTCLDY    48  18  30 CALM      30.18S
6HR MIN TEMP:  45; 6HR MAX TEMP:  50;

SPIRIT OF STL  PTCLDY    47  17  30 NE3       30.16F
6HR MIN TEMP:  44; 6HR MAX TEMP:  49;

ST CHARLES     CLEAR     47  19  33 NW6       30.17S
6HR MIN TEMP:  43; 6HR MAX TEMP:  48;


$$
MOZ072>076-082>087-097>100-106>115-160100-
...SOUTH CENTRAL AND SOUTHEAST MISSOURI...

CITY           SKY/WX    TMP DP  RH WIND       PRES   REMARKS
CAPE GIRARDEAU CLEAR     47  22  37 NE10      30.19S
6HR MIN TEMP:  45; 6HR MAX TEMP:  50;

FARMINGTON     CLEAR     46  18  31 NW3       30.19R
6HR MIN TEMP:  43; 6HR MAX TEMP:  48;

POPLAR BLUFF   CLEAR     51  23  33 MISG      30.16S
6HR MIN TEMP:  48; 6HR MAX TEMP:  54;

WEST PLAINS    CLEAR     50  21  32 N3        30.15S
6HR MIN TEMP:  46; 6HR MAX TEMP:  53;


$$



USA.gov is the U.S. government's official web portal to all federal, state and local government web resources and services.